Regional Weather Roundup
Issued by NWS

Home | Current Version | Previous Version | Text Only | Print | Product List | Glossary Off
Versions: 1 2 3 4 5 6 7 8 9 10 11 12 13 14 15 16 17 18 19 20 21 22 23 24 25 26 27

000
ASUS45 KPSR 211810
RWRAZ

ARIZONA HOURLY REGIONAL WEATHER ROUNDUP
NATIONAL WEATHER SERVICE PHOENIX AZ
1100 AM MST TUE NOV 21 2017

NOTE: FAIR INDICATES FEW OR NO CLOUDS BELOW 12,000 FEET WITH NO
SIGNIFICANT WEATHER AND/OR OBSTRUCTIONS TO VISIBILITY.

AZZ001>003-036-211900-
NORTHWEST ARIZONA

CITY           SKY/WX    TMP DP  RH WIND       PRES   REMARKS
BULLHEAD CITY  SUNNY     70  12  11 N24       30.16F
KINGMAN        SUNNY     64  15  15 N7        30.27S
6HR MIN TEMP:  42; 6HR MAX TEMP:  64;

$$

AZZ004>008-015-016-018-211900-
NORTH CENTRAL ARIZONA

CITY           SKY/WX    TMP DP  RH WIND       PRES   REMARKS
GRAND CANYON   SUNNY     64  30  27 NE9       30.38R
6HR MIN TEMP:  24; 6HR MAX TEMP:  64;

WILLIAMS       SUNNY     66  28  24 NE8G14    30.35S
PRESCOTT       SUNNY     64  12  13 VRB3      30.29S
6HR MIN TEMP:  38; 6HR MAX TEMP:  64;

FLAGSTAFF      SUNNY     60  23  24 E10       30.36R
6HR MIN TEMP:  25; 6HR MAX TEMP:  60;

PAYSON           N/A     66  16  14 CALM      30.27F
PAGE           SUNNY     50  16  25 VRB6      30.35R
6HR MIN TEMP:  37; 6HR MAX TEMP:  50;

$$

AZZ009>014-017-211900-
NORTHEAST ARIZONA

CITY           SKY/WX    TMP DP  RH WIND       PRES   REMARKS
WINSLOW        SUNNY     54   6  14 CALM      30.33S
6HR MIN TEMP:  26; 6HR MAX TEMP:  54;

SAINT JOHNS    SUNNY     51   8  17 VRB3      30.33S
6HR MIN TEMP:  25; 6HR MAX TEMP:  52;

WINDOW ROCK    SUNNY     61  25  25 MISG      30.33S
6HR MIN TEMP:  23; 6HR MAX TEMP:  61;

SHOW LOW       SUNNY     55   7  14 N9        30.35F
$$

AZZ540-542>544-546-548-211900-
GREATER PHOENIX AREA

CITY           SKY/WX    TMP DP  RH WIND       PRES   REMARKS
PHOENIX        PTSUNNY   69  29  22 CALM      30.12F
6HR MIN TEMP:  55; 6HR MAX TEMP:  69;

BUCKEYE        SUNNY     64  45  48 S3        30.14F
GLENDALE       PTSUNNY   66  32  28 CALM      30.15F
LUKE AFB       MOSUNNY   67  28  23 CALM      30.12F
6HR MIN TEMP:  49; 6HR MAX TEMP:  67;

DEER VALLEY    MOSUNNY   67  22  18 SW5       30.13S
6HR MIN TEMP:  51; 6HR MAX TEMP:  67;

SCOTTSDALE     SUNNY     68  34  28 CALM      30.14F
6HR MIN TEMP:  51; 6HR MAX TEMP:  68;

MESA-FALCON    PTSUNNY   70  27  19 CALM      30.13F
CHANDLER       PTSUNNY   66  28  24 CALM      30.13F
$$

AZZ539-553-211900-
SOUTHWEST MARICOPA COUNTY AND PINAL COUNTY

CITY           SKY/WX    TMP DP  RH WIND       PRES   REMARKS
CASA GRANDE    NOT AVBL
GILA BEND      MOSUNNY   70  23  17 N6        30.13F
$$

AZZ503-504-507>509-211900-
SOUTHEAST ARIZONA

CITY           SKY/WX    TMP DP  RH WIND       PRES   REMARKS
TUCSON         SUNNY     67  26  21 CALM      30.18S
6HR MIN TEMP:  48; 6HR MAX TEMP:  67;

DAVIS-MONTHAN  MOSUNNY   69  27  21 CALM      30.16S
6HR MIN TEMP:  46; 6HR MAX TEMP:  69;

RYAN FIELD     SUNNY     66  27  22 CALM      30.18F
NOGALES        MOSUNNY   66  23  19 CALM      30.19F
6HR MIN TEMP:  41; 6HR MAX TEMP:  66;

SIERRA VISTA   SUNNY     67  11  11 E6        30.25S
6HR MIN TEMP:  49; 6HR MAX TEMP:  69;

DOUGLAS        SUNNY     65  19  17 VRB3      30.22F
6HR MIN TEMP:  36; 6HR MAX TEMP:  66;

SAFFORD        SUNNY     62  16  16 CALM      30.18F
6HR MIN TEMP:  36; 6HR MAX TEMP:  62;

$$

AZZ532-211900-
SOUTHWEST ARIZONA

CITY           SKY/WX    TMP DP  RH WIND       PRES   REMARKS
YUMA           MOSUNNY   76  11   8 N13       30.13S
6HR MIN TEMP:  60; 6HR MAX TEMP:  76;

$$

CAZ041-043-047-048-061-525>527-560>570-211900-
SOUTHERN CALIFORNIA

CITY           SKY/WX    TMP DP  RH WIND       PRES   REMARKS
DOWNTOWN L.A.  SUNNY     80  36  20 CALM      30.07S
6HR MIN TEMP:  58; 6HR MAX TEMP:  80;

L.A. AIRPORT   PTSUNNY   76  45  33 SW6       30.09R
6HR MIN TEMP:  58; 6HR MAX TEMP:  77;

SAN DIEGO      MOSUNNY   75  39  27 W6        30.08S
6HR MIN TEMP:  56; 6HR MAX TEMP:  75;

BURBANK        SUNNY     77  33  20 CALM      30.10S
6HR MIN TEMP:  57; 6HR MAX TEMP:  77;

ONTARIO        PTSUNNY   78  27  15 CALM      30.11R
6HR MIN TEMP:  54; 6HR MAX TEMP:  78;

RIVERSIDE      MOSUNNY   76  36  23 E3        30.11R
6HR MIN TEMP:  53; 6HR MAX TEMP:  76;

PALM SPRINGS   SUNNY     76  25  15 CALM      30.17R
6HR MIN TEMP:  53; 6HR MAX TEMP:  76;

EL CENTRO NAS  PTSUNNY   73  24  16 CALM      30.15S
6HR MIN TEMP:  47; 6HR MAX TEMP:  73;

IMPERIAL       SUNNY     72  31  22 NW5       30.13S
6HR MIN TEMP:  49; 6HR MAX TEMP:  72;

BLYTHE         SUNNY     69   8   9 CALM      30.17S
6HR MIN TEMP:  50; 6HR MAX TEMP:  69;

NEEDLES        SUNNY     71  12  10 CALM      30.18F
6HR MIN TEMP:  54; 6HR MAX TEMP:  71;

$$

NVZ020-UTZ003-211900-
SOUTHERN NEVADA-UTAH

CITY           SKY/WX    TMP DP  RH WIND       PRES   REMARKS
LAS VEGAS      PTSUNNY   63  14  15 E3        30.27R
6HR MIN TEMP:  49; 6HR MAX TEMP:  63;

SALT LAKE CITY PTSUNNY   51  38  60 CALM      30.36R
6HR MIN TEMP:  44; 6HR MAX TEMP:  51;

$$

NMZ009-TXZ055-211900-
NEW MEXICO-WEST TEXAS

CITY           SKY/WX    TMP DP  RH WIND       PRES   REMARKS
ALBUQUERQUE    PTSUNNY   55   9  16 N8        30.27S
6HR MIN TEMP:  44; 6HR MAX TEMP:  55;

EL PASO        PTSUNNY   65  16  15 SW6       30.15F
6HR MIN TEMP:  43; 6HR MAX TEMP:  65;

$$


........................KEY........................
SKY/WX - SKY CONDITION/WEATHER
TMP    - TEMPERATURE IN FAHRENHEIT
DP     - DEW POINT IN FAHRENHEIT
RH     - RELATIVE HUMIDITY IN PERCENT
WIND   - DIRECTION AND SPEED IN MILES PER HOUR (MPH)
VRB    - VARIABLE WIND DIRECTION
PRES   - MEAN SEA LEVEL PRESSURE IN INCHES OF MERCURY
         F - FALLING PRESSURE   R - RISING PRESSURE
         S - STEADY PRESSURE
VSB    - VISIBILITY IN MILES
HX     - HEAT INDEX IN FAHRENHEIT
WCI    - WIND CHILL INDEX IN FAHRENHEIT
TC     - TEMPERATURE IN CELSIUS WHICH IS ALSO KNOWN AS
         TEMPERATURE IN CENTIGRADE
AFB    - AIR FORCE BASE
         LUKE AFB IS LUKE AIR FORCE BASE
         DAVIS-MONTHAN IS DAVIS-MONTHAN AIR FORCE BASE
NAS    - NAVAL AIR STATION
         EL CENTRO NAS IS EL CENTRO NAVAL AIR STATION
N/A    - NOT AVAILABLE





USA.gov is the U.S. government's official web portal to all federal, state and local government web resources and services.